[[{"header":{"parameterUnit":"m.s-1","parameterCategory":1,"la1":30.2991,"la2":30.254,"lo1":-89.0895,"lo2":-89.0444,"dy":0.0017,"dx":0.0017,"nx":28,"ny":28,"refTime":"2024-05-18T03:00:00:Z","depth":0,"parameterNumber":2,"parameterNumberName":"U-component_of_WINDS"},"data":[0,0,0,0,0,0,0,0,0,0,0,0,0,0,0,0,0,0,0,0,0,0,0,0,0,0,0,0,0,0,0,0,0,0,0,0,0,0,0,0,0,0,0,0,0,0,0,0,0,0,0,0,0,0,0,0,0,0,-1.8123,-1.8124,0,-1.8165,-1.8166,-1.8166,-1.8176,-1.8176,-1.8176,-1.8176,-1.8216,-1.8218,-1.8219,0,0,0,0,0,0,0,0,0,0,0,0,0,-1.805,-1.8051,-1.8123,-1.8124,-1.8124,-1.8165,-1.8166,-1.8166,-1.8177,-1.8176,-1.8176,-1.8176,-1.8216,-1.8217,-1.8219,0,0,0,0,0,0,0,0,0,0,0,0,0,-1.8085,-1.8051,-1.8123,-1.8134,-1.8136,-1.8165,-1.8166,-1.8166,-1.8177,-1.8176,-1.8176,-1.8175,-1.8215,-1.8217,-1.8219,-1.8239,0,0,-1.8225,-1.8226,0,0,0,0,0,0,0,0,-1.8083,-1.8088,-1.8132,-1.8134,-1.8135,-1.8165,-1.8155,-1.8191,-1.8177,-1.8161,-1.8176,-1.8175,-1.8199,-1.8203,-1.8211,-1.8241,-1.8243,-1.8226,-1.8227,-1.8228,-1.8228,0,0,0,0,0,0,0,-1.8081,-1.8086,-1.814,-1.8133,-1.8135,-1.8136,-1.8141,-1.8161,-1.8182,-1.8162,-1.8163,-1.8168,-1.82,-1.8209,-1.8212,-1.8244,-1.8225,-1.8227,-1.8228,-1.8229,-1.8291,-1.8291,0,0,0,0,0,0,-1.8077,-1.8084,-1.8139,-1.8141,-1.8108,-1.8138,-1.8143,-1.8156,-1.8182,-1.8185,-1.8168,-1.8168,-1.8206,-1.821,-1.8214,-1.8238,-1.8228,-1.8229,-1.8231,-1.829,-1.8291,-1.8291,0,0,0,0,0,0,-1.8075,-1.8082,-1.8137,-1.8113,-1.812,-1.814,-1.8154,-1.8157,-1.8166,-1.8186,-1.819,-1.8174,-1.8206,-1.8211,-1.8233,-1.824,-1.823,-1.8232,-1.829,-1.829,-1.8291,-1.8288,0,0,0,0,0,0,-1.8073,-1.8081,-1.809,-1.8113,-1.8121,-1.8156,-1.8154,-1.8158,-1.817,-1.817,-1.8193,-1.8196,-1.8206,-1.823,-1.8235,-1.8243,-1.8234,-1.8289,-1.829,-1.8291,-1.8288,-1.8289,-1.8289,0,0,0,0,0,-1.807,-1.8087,-1.809,-1.8097,-1.8133,-1.8156,-1.8161,-1.8173,-1.8171,-1.8179,-1.8191,-1.8195,-1.8238,-1.8232,-1.8238,-1.8246,-1.8289,-1.829,-1.8291,-1.8287,-1.8288,-1.8289,0,0,0,0,0,0,-1.8063,-1.809,-1.8094,-1.8119,-1.8135,-1.8158,-1.8169,-1.8174,-1.8191,-1.8191,-1.8204,-1.8209,-1.8229,-1.824,-1.8232,-1.8266,-1.8263,-1.8266,-1.8259,-1.826,-1.8261,-1.8258,-1.8235,0,0,0,0,0,-1.8065,-1.8083,-1.8105,-1.8124,-1.8133,-1.8149,-1.816,-1.8168,-1.8185,-1.8192,-1.8206,-1.8222,-1.8239,-1.825,-1.8267,-1.8289,-1.8293,-1.8298,-1.8298,-1.8299,-1.8301,-1.8312,-1.8314,-1.8295,-1.8295,-1.8295,0,0,-1.8068,-1.8085,-1.8095,-1.8124,-1.8137,-1.8154,-1.8155,-1.8174,-1.8186,-1.8195,-1.8216,-1.8227,-1.8245,-1.8267,-1.8277,-1.8277,-1.8307,-1.83,-1.8301,-1.8302,-1.8313,-1.8315,-1.8316,-1.8295,-1.8295,-1.8295,0,0,-1.8082,-1.8097,-1.8115,-1.8128,-1.8149,-1.816,-1.8164,-1.8186,-1.8194,-1.8215,-1.8222,-1.8236,-1.8266,-1.8278,-1.8289,-1.8306,-1.831,-1.8311,-1.8315,-1.8326,-1.8328,-1.8329,-1.8334,-1.8336,-1.8313,-1.8313,-1.8313,0,-1.8083,-1.811,-1.8123,-1.8141,-1.8152,-1.8161,-1.8178,-1.8191,-1.8215,-1.8223,-1.8222,-1.8258,-1.8271,-1.8295,-1.83,-1.8308,-1.8312,-1.8309,-1.8327,-1.8328,-1.833,-1.8335,-1.8337,-1.8313,-1.8313,-1.8313,-1.8313,0,-1.8109,-1.8128,-1.8139,-1.8164,-1.8177,-1.8194,-1.8208,-1.822,-1.8226,-1.8237,-1.8258,-1.8274,-1.8294,-1.83,-1.8306,-1.8325,-1.8323,-1.8324,-1.8322,-1.8331,-1.8336,-1.8338,-1.8313,-1.8313,-1.8313,-1.8313,0,0,-1.8121,-1.8151,-1.8155,-1.8166,-1.8189,-1.8203,-1.822,-1.824,-1.8249,-1.8265,-1.8279,-1.8303,-1.8304,-1.8316,-1.8323,-1.8333,-1.8344,-1.8332,-1.8333,-1.8333,-1.8364,-1.8363,-1.8365,-1.8347,-1.8347,-1.8348,-1.8363,0,-1.8137,-1.8169,-1.8181,-1.8206,-1.8223,-1.8231,-1.8245,-1.8261,-1.8271,-1.8285,-1.8296,-1.8312,-1.8313,-1.8319,-1.8329,-1.8341,-1.8351,-1.834,-1.8359,-1.836,-1.8354,-1.8368,-1.8368,-1.8381,-1.8365,-1.8365,-1.8365,0,-1.8161,-1.8178,-1.8206,-1.8226,-1.8233,-1.8246,-1.8264,-1.8279,-1.8295,-1.8302,-1.8314,-1.8321,-1.8338,-1.8334,-1.8357,-1.8349,-1.8358,-1.8364,-1.8365,-1.8367,-1.8363,-1.837,-1.8385,-1.8387,-1.8369,-1.8369,-1.8368,0,-1.8166,-1.8195,-1.8216,-1.8224,-1.8248,-1.8257,-1.8267,-1.8284,-1.8294,-1.831,-1.8317,-1.8334,-1.8344,-1.8356,-1.8367,-1.8364,-1.8388,-1.8386,-1.8393,-1.8393,-1.8398,-1.8398,-1.8415,-1.8404,-1.8404,-1.8404,-1.8404,0,-1.8183,-1.8199,-1.8218,-1.823,-1.8248,-1.826,-1.8277,-1.8288,-1.8302,-1.8316,-1.8324,-1.8336,-1.835,-1.8363,-1.8372,-1.8389,-1.8393,-1.8398,-1.84,-1.8397,-1.8396,-1.8403,-1.8402,-1.8405,-1.8405,-1.8405,-1.8404,0,-1.8191,-1.8204,-1.8227,-1.8247,-1.8253,-1.8265,-1.8282,-1.8294,-1.8304,-1.8321,-1.8325,-1.8341,-1.8357,-1.8369,-1.8391,-1.8396,-1.8414,-1.8416,-1.8409,-1.841,-1.8416,-1.8415,-1.8437,-1.8441,-1.8428,-1.8429,-1.8429,0,-1.8201,-1.8214,-1.8235,-1.8245,-1.8256,-1.8272,-1.8282,-1.8295,-1.8306,-1.8325,-1.8334,-1.8351,-1.8365,-1.8391,-1.8404,-1.842,-1.8422,-1.8429,-1.8424,-1.8421,-1.8421,-1.842,-1.8421,-1.8429,-1.8429,-1.8429,-1.8429,0,-1.8216,-1.8222,-1.8238,-1.8256,-1.8269,-1.8283,-1.8298,-1.8305,-1.832,-1.8332,-1.8349,-1.836,-1.8382,-1.8398,-1.8415,-1.8425,-1.8429,-1.843,-1.8433,-1.843,-1.8425,-1.8427,-1.841,-1.843,-1.843,-1.843,-1.843,-1.843,-1.8225,-1.8237,-1.8254,-1.8271,-1.8283,-1.8296,-1.8308,-1.8319,-1.8334,-1.8353,-1.8359,-1.8376,-1.8391,-1.8415,-1.8424,-1.8437,-1.8437,-1.8441,-1.8442,-1.8442,-1.8442,-1.8423,-1.8441,-1.8441,-1.8441,-1.8441,-1.8441,0,-1.8241,-1.8252,-1.8268,-1.8288,-1.8301,-1.8304,-1.832,-1.8331,-1.8346,-1.836,-1.8374,-1.8393,-1.8409,-1.8423,-1.8439,-1.8447,-1.8449,-1.845,-1.845,-1.8452,-1.8442,-1.8438,-1.8448,-1.8448,-1.8448,-1.8448,-1.8448,-1.8448,-1.825,-1.8269,-1.8277,-1.8301,-1.8312,-1.833,-1.8339,-1.835,-1.8361,-1.8383,-1.8396,-1.8405,-1.8418,-1.8435,-1.8449,-1.8453,-1.8458,-1.8459,-1.8463,-1.8453,-1.8452,-1.8451,-1.8448,-1.846,-1.846,-1.8472,-1.8472,-1.8472]},{"header":{"parameterUnit":"m.s-1","parameterCategory":1,"la1":30.2991,"la2":30.254,"lo1":-89.0895,"lo2":-89.0444,"dy":0.0017,"dx":0.0017,"nx":28,"ny":28,"refTime":"2024-05-18T03:00:00:Z","depth":0,"parameterNumber":3,"parameterNumberName":"V-component_of_WINDS"},"data":[0,0,0,0,0,0,0,0,0,0,0,0,0,0,0,0,0,0,0,0,0,0,0,0,0,0,0,0,0,0,0,0,0,0,0,0,0,0,0,0,0,0,0,0,0,0,0,0,0,0,0,0,0,0,0,0,0,0,2.7024,2.7024,0,2.7028,2.7028,2.7028,2.6975,2.6974,2.6972,2.6971,2.6976,2.6977,2.6979,0,0,0,0,0,0,0,0,0,0,0,0,0,2.697,2.6971,2.7024,2.7024,2.7024,2.7028,2.7028,2.7028,2.6975,2.6973,2.6972,2.697,2.6975,2.6977,2.6979,0,0,0,0,0,0,0,0,0,0,0,0,0,2.6986,2.6971,2.7024,2.6998,2.6995,2.7028,2.7028,2.7028,2.6976,2.6973,2.6971,2.6969,2.6975,2.6977,2.6979,2.7037,0,0,2.6986,2.6987,0,0,0,0,0,0,0,0,2.6985,2.6988,2.7001,2.7,2.6997,2.6999,2.7011,2.7031,2.6976,2.6983,2.6971,2.6968,2.6985,2.6986,2.6992,2.7037,2.7038,2.6986,2.6988,2.6989,2.6989,0,0,0,0,0,0,0,2.6984,2.6987,2.7025,2.7002,2.6999,2.6986,2.6986,2.7015,2.6996,2.6982,2.6978,2.698,2.6984,2.699,2.6992,2.7038,2.6986,2.6988,2.699,2.699,2.7133,2.7136,0,0,0,0,0,0,2.6986,2.6987,2.7025,2.7026,2.6985,2.6989,2.6989,2.7,2.6996,2.6993,2.6982,2.6977,2.6987,2.6989,2.6992,2.7062,2.6989,2.6991,2.6992,2.7131,2.7134,2.7137,0,0,0,0,0,0,2.6985,2.699,2.7025,2.7005,2.7009,2.6992,2.7006,2.7002,2.7008,2.6995,2.6992,2.6992,2.6986,2.6989,2.7027,2.7061,2.6992,2.6994,2.7128,2.7132,2.7135,2.72,0,0,0,0,0,0,2.6984,2.699,2.7011,2.7006,2.701,2.706,2.7008,2.7003,2.7012,2.7007,2.7004,2.7001,2.6984,2.7024,2.7029,2.7063,2.6995,2.7125,2.713,2.7134,2.7195,2.7206,2.7215,0,0,0,0,0,2.6982,2.7029,2.7013,2.7018,2.7036,2.7062,2.7064,2.7043,2.7015,2.7037,2.7029,2.7002,2.7056,2.7028,2.7034,2.7069,2.7123,2.7128,2.7134,2.7191,2.7204,2.7215,0,0,0,0,0,0,2.7038,2.7028,2.701,2.7056,2.706,2.7053,2.7079,2.7057,2.7069,2.7064,2.7037,2.7037,2.708,2.7078,2.7047,2.7126,2.7085,2.7091,2.7126,2.7138,2.7148,2.7148,2.6997,0,0,0,0,0,2.7056,2.7078,2.7067,2.7109,2.7112,2.7096,2.7106,2.709,2.7093,2.7095,2.7089,2.7094,2.7112,2.7125,2.7141,2.7194,2.7194,2.7221,2.7231,2.7239,2.7246,2.7276,2.7289,2.7155,2.7155,2.7154,0,0,2.7093,2.709,2.7105,2.712,2.7122,2.7145,2.7097,2.7124,2.7141,2.7098,2.7135,2.7131,2.7135,2.7182,2.7202,2.7181,2.7283,2.7246,2.7253,2.7255,2.7283,2.7296,2.7307,2.7158,2.7158,2.7157,0,0,2.7173,2.7172,2.7208,2.7211,2.7214,2.7203,2.7212,2.7208,2.7204,2.724,2.7209,2.723,2.7261,2.7266,2.7272,2.7356,2.7332,2.7362,2.7414,2.7445,2.7455,2.7464,2.7497,2.7508,2.7369,2.7369,2.7369,0,2.7219,2.7253,2.7229,2.7259,2.7267,2.723,2.7267,2.7271,2.7279,2.7286,2.7263,2.7303,2.7302,2.7351,2.7372,2.7377,2.7388,2.7363,2.7455,2.7465,2.7473,2.7503,2.7515,2.7372,2.7372,2.7372,2.7371,0,2.731,2.7334,2.7363,2.7373,2.7384,2.7417,2.74,2.7415,2.7398,2.739,2.7428,2.7427,2.7443,2.7453,2.7436,2.75,2.7487,2.746,2.7418,2.749,2.7518,2.7529,2.7378,2.7377,2.7375,2.7375,0,0,2.7425,2.7423,2.7434,2.7439,2.744,2.7459,2.7491,2.7507,2.7521,2.7528,2.7556,2.7584,2.756,2.7568,2.7551,2.7577,2.7647,2.7547,2.7547,2.7568,2.772,2.7742,2.7756,2.7631,2.7633,2.7634,2.772,0,2.7504,2.7559,2.754,2.7596,2.762,2.7586,2.7614,2.7618,2.7612,2.7631,2.7624,2.7646,2.7611,2.7615,2.764,2.7633,2.7678,2.7627,2.7657,2.7659,2.766,2.777,2.7793,2.7874,2.7731,2.7733,2.7734,0,2.7604,2.7617,2.7676,2.7676,2.7685,2.771,2.7725,2.7743,2.7748,2.7742,2.7752,2.773,2.7763,2.7721,2.7766,2.7732,2.7744,2.7743,2.7745,2.7749,2.7702,2.7778,2.7899,2.7912,2.7751,2.775,2.7748,0,2.7685,2.7717,2.7757,2.7762,2.7762,2.7781,2.7782,2.7785,2.7797,2.7809,2.7817,2.7833,2.7843,2.7856,2.7841,2.7811,2.789,2.7845,2.7887,2.7887,2.7906,2.7905,2.8032,2.791,2.791,2.791,2.791,0,2.7777,2.7815,2.7793,2.7818,2.786,2.7838,2.7881,2.7878,2.7881,2.7906,2.7876,2.79,2.7877,2.7899,2.7886,2.7928,2.7931,2.7928,2.7925,2.7932,2.7933,2.7941,2.7935,2.7913,2.7912,2.7912,2.7911,0,2.7875,2.7862,2.7904,2.7901,2.7901,2.7932,2.793,2.7954,2.7946,2.7977,2.7983,2.7971,2.7995,2.7981,2.8005,2.7997,2.8052,2.8039,2.805,2.8048,2.8091,2.8088,2.8229,2.8248,2.8112,2.8113,2.8114,0,2.7936,2.7964,2.7965,2.798,2.7983,2.8006,2.8018,2.7998,2.8012,2.8022,2.8045,2.8067,2.8083,2.8124,2.8118,2.8137,2.8127,2.8175,2.8129,2.8137,2.813,2.813,2.8134,2.8185,2.8186,2.8187,2.8188,0,2.8045,2.8038,2.8056,2.8074,2.809,2.8102,2.8112,2.8126,2.8106,2.8124,2.8149,2.8162,2.8188,2.8211,2.8228,2.8229,2.8207,2.8203,2.8214,2.8222,2.8229,2.8228,2.8078,2.82,2.8199,2.8198,2.8197,2.8197,2.8128,2.8152,2.8158,2.818,2.8186,2.8197,2.822,2.8215,2.8236,2.8256,2.8242,2.8273,2.8279,2.8299,2.8304,2.8328,2.8309,2.8324,2.8329,2.8333,2.8341,2.8223,2.8331,2.8331,2.833,2.833,2.833,0,2.8238,2.824,2.8261,2.8277,2.8295,2.8272,2.8282,2.83,2.8327,2.8334,2.8352,2.8382,2.8405,2.8401,2.8422,2.8442,2.8433,2.8449,2.8448,2.8449,2.8355,2.8345,2.8456,2.8456,2.8456,2.8456,2.8456,2.8456,2.8297,2.8339,2.8333,2.8378,2.8379,2.8409,2.8418,2.8428,2.8434,2.8469,2.8488,2.8486,2.8489,2.8511,2.8531,2.853,2.854,2.856,2.8555,2.8468,2.8455,2.8444,2.8434,2.8562,2.8562,2.8647,2.8648,2.8649]}]]